Home   Weather   Gomel   Past weeks

Flag for Belarus Past Weather in Gomel, Belarus — Yesterday and Last 2 Weeks

Now
27 °F

Overcast.


Feels Like: 23 °F
Forecast: 13 / 21 °F
Wind: 3 mph from Northwest

Location: Gomel'

Current Time: Jan 17, 2017 at 3:58:15 am

Latest Report: Jan 17, 2017 at 3:00 am


Visibility: N/A

Pressure: 30.39 "Hg

Humidity: 100%

Dew Point: 27 °F

Location of GomelLocation

Past Weather in Gomel — Graph

°F

Gomel Temperature Yesterday

Maximum temperature yesterday: 30 °F (at 12:00 am)
Minimum temperature yesterday: 23 °F (at 3:00 am)
Average temperature yesterday: 27 °F

High & Low Weather Summary for the Past Weeks

 TemperatureHumidityPressure
High36 °F (Jan 15, 1:00 am)100% (Jan 4, 10:00 am)30.39 "Hg (Jan 4, 10:00 am)
Low-4 °F (Jan 7, 8:00 am)44% (Jan 8, 3:00 am)29.27 "Hg (Jan 4, 2:30 pm)
Average20 °F90%29.90 "Hg
* Reported Jan 3 1:00 pm — Jan 17 2:30 am, Gomel, Weather by CustomWeather, © 2017

Note: Actual official high and low records may vary slightly from our data, if they occured in-between our weather recording intervals... More about our weather records

Advertising

Gomel Weather History for the Previous 24 Hours

Scroll right to see more
 ConditionsComfort  
Time TempWeatherWind HumidityBarometerVisibility
2:30 am
Tue, Jan 17
27 °FOvercast.1 mph93%30.39 "Hg4 mi
2:00 am27 °FIce fog.1 mph93%30.36 "Hg3 mi
1:30 am27 °FIce fog.1 mph93%30.36 "Hg2 mi
1:00 am27 °FIce fog.1 mph93%30.36 "Hg2 mi
12:30 am27 °FIce fog.1 mph100%30.33 "Hg2 mi
12:00 am27 °FIce fog.1 mph100%30.33 "Hg2 mi
11:30 pm
Mon, Jan 16
27 °FIce fog.3 mph100%30.33 "Hg2 mi
11:00 pm27 °FIce fog.3 mph100%30.33 "Hg2 mi
10:30 pm27 °FIce fog.3 mph100%30.30 "Hg2 mi
10:00 pm27 °FIce fog.3 mph100%30.30 "Hg2 mi
9:30 pm27 °FIce fog.3 mph93%30.30 "Hg2 mi
9:00 pm27 °FIce fog.1 mph93%30.30 "Hg2 mi
8:30 pm27 °FIce fog.1 mph93%30.30 "Hg2 mi
8:00 pm27 °FLight snow. Ice fog.1 mph93%30.27 "Hg2 mi
7:30 pm27 °FIce fog.1 mph93%30.24 "Hg2 mi
7:00 pm27 °FIce fog.1 mph93%30.24 "Hg2 mi
6:30 pm28 °FIce fog.1 mph93%30.24 "Hg2 mi
6:00 pm28 °FIce fog.1 mph93%30.24 "Hg3 mi
5:30 pm28 °FIce fog.1 mph93%30.24 "Hg3 mi
5:00 pm28 °FIce fog.1 mph93%30.24 "Hg3 mi
4:30 pm28 °FIce fog.1 mph93%30.24 "Hg3 mi
4:00 pm28 °FIce fog.1 mph93%30.24 "Hg2 mi
3:30 pm28 °FIce fog.1 mph93%30.24 "Hg2 mi
3:00 pm28 °FIce fog.1 mph93%30.24 "Hg2 mi
2:30 pm28 °FIce fog.1 mph93%30.24 "Hg2 mi
2:00 pm28 °FIce fog.1 mph93%30.21 "Hg2 mi
1:30 pm28 °FIce fog.1 mph93%30.21 "Hg1 mi
1:00 pm28 °FIce fog.1 mph93%30.21 "Hg1 mi
12:30 pm27 °FIce fog.1 mph93%30.21 "Hg1 mi
12:00 pm27 °FIce fog.1 mph93%30.21 "Hg1 mi
11:33 am27 °FIce fog.1 mph93%30.21 "Hg1 mi
11:00 am27 °FIce fog.3 mph93%30.21 "Hg2 mi
10:30 am27 °FIce fog.3 mph93%30.18 "Hg2 mi
10:00 am27 °FIce fog.3 mph93%30.18 "Hg3 mi
9:30 am27 °FLight snow. Ice fog.6 mph93%30.18 "Hg3 mi
9:00 am27 °FLight snow. Ice fog.6 mph93%30.18 "Hg1 mi
8:30 am25 °FIce fog.6 mph100%30.15 "Hg3 mi
8:00 am25 °FIce fog.6 mph100%30.15 "Hg2 mi
7:30 am27 °FPassing clouds.3 mph93%30.15 "Hg4 mi
7:00 am27 °FPassing clouds.6 mph93%30.15 "Hg4 mi
6:30 am25 °FPassing clouds.6 mph93%30.15 "Hg4 mi
6:00 am25 °FOvercast.6 mph93%30.12 "Hg4 mi
5:00 am25 °FPassing clouds.6 mph93%30.12 "Hg4 mi
4:00 am23 °FPassing clouds.6 mph100%30.12 "Hg5 mi
3:00 am23 °FPassing clouds.8 mph100%30.09 "HgN/A
Weather by CustomWeather, © 2017

See weather overviewHow to use our weather pages